Simultaneous Nadir Overpasses (SNOs) Predictions

Prediction of SNOs between LANDSAT-8 and NOAA-19 Satellite Orbit:

Table of predicted SNOs for the next 14.0 days since TLE Epoch: 8/11/2016
Index Date (LANDSAT-8) Time (LANDSAT-8) Lat,Lon (LANDSAT-8) SZA (LANDSAT-8 ) Date (NOAA-19) Time (NOAA-19) Lat,Lon (NOAA-19) SZA (NOAA-19 ) Distance(km) Time Diff (sec)
1 08/12/2016 14:40:26 -74.95, 145.30 119.81 08/12/2016 14:39:33 -74.95, 145.40 119.80 3.01 53
2 08/12/2016 15:29:52 74.92, -47.12 60.18 08/12/2016 15:30:32 74.90, -47.18 60.16 3.42 40
3 08/14/2016 20:14:10 74.95,-118.13 60.89 08/14/2016 20:13:34 74.98,-118.13 60.92 3.45 36
4 08/14/2016 21:03:39 -74.88, 49.33 119.18 08/14/2016 21:04:34 -74.87, 49.44 119.18 3.67 55
5 08/17/2016 01:47:56 -74.96, -21.55 118.40 08/17/2016 01:47:37 -74.97, -21.57 118.38 1.98 19
6 08/17/2016 02:37:23 74.87, 145.88 61.53 08/17/2016 02:38:34 74.88, 145.97 61.54 2.67 71
7 08/19/2016 07:21:40 74.94, 74.98 62.31 08/19/2016 07:21:36 74.97, 75.00 62.34 2.97 4
8 08/19/2016 08:11:20 -74.32,-118.92 118.33 08/19/2016 08:12:25 -74.29,-115.82 118.28 93.40 65
9 08/21/2016 12:05:53 75.21, 4.61 63.33 08/21/2016 12:04:42 75.25, 3.45 63.33 33.21 71
10 08/21/2016 12:55:26 -74.95, 171.56 116.94 08/21/2016 12:55:40 -74.97, 171.54 116.92 1.90 14
11 08/23/2016 17:39:43 -75.01, 100.65 116.13 08/23/2016 17:38:42 -75.04, 100.62 116.11 2.91 61
12 08/23/2016 18:29:09 74.97, -91.81 63.85 08/23/2016 18:29:38 74.97, -91.90 63.84 2.60 29
